sat.trackr.live / text

‹ back to catalog

STARLINK-34399

NORAD 64444 · 2025-130G

PAYLOAD ACTIVE UNKNOWN

§ Identity

Operator
Country
US
Launch date
2025-06-18
Launch site
AFETR
Launch vehicle
Mass (kg)
RCS (m²)

Purposes: comms

External: N2YO · Heavens-Above · Gunter

§ Orbital elements

Epoch: 2026-05-25T02:41:39.236352Z

Period
93.85 min
Inclination
53.1603°
Eccentricity
0.0001050
Mean motion
15.34401389 rev/d
Perigee alt
462.0 km
Apogee alt
463.4 km
Semi-major
6,840.8 km
B*
5.9097e-4
RAAN
92.8602°
Arg perigee
86.8761°
Mean anomaly
273.2361°
Rev number
5,241

§ Raw data

STARLINK-343991 64444U 25130G   26145.11225968  .00019644  00000+0  59097-3 0  99912 64444  53.1603  92.8602 0001050  86.8761 273.2361 15.34401389 52415

JSON: /api/v1/satellites/64444 · /tle

For live sub-satellite position, see the globe view (requires WebGL).

§ Visibility from observer

Set your observer location to see the next 7 days of passes ≥ 10°. The values pass through the URL so the page stays shareable.

No JS? Fill the form by hand. The geolocation button needs JavaScript.